Dewpoint
52 52 53 52 52 52 52 52 53 52 53 53 53 52 53 53 53 53 53 54 55 55 54 53 51 52 51 49 48 48 48 48 48 48 46 46 45 44 44 42 41 41 42 43 42 43 41 41 41 42 45 45 43 44 42 42 43 44 44 43 43 45 45 45 43 43 45 46 47 45 46 48 46 46 46 51 54 55 54 56 58 59 58 59 59
52 52 53 53 53 53 53 53 53 52 53 54 53 52 52 52 53 52 53 53 54 53 53 54 52 51 50 48 47 46 46 46 47 47 45 45 46 46 45 42 41 41 43 40 42 42 43 40 38 40 41 43 45 41 40 40 40 39 40 42 41 42 45 43 42 42 43 45 44 44 45 47 45 46 50 52 53 53 52 52 53 55 56 57 57
51 52 53 53 53 54 53 53 53 54 54 53 53 52 52 53 52 52 52 53 53 53 53 53 52 50 49 48 46 46 45 46 47 46 45 43 42 44 45 43 42 42 42 41 38 40 41 41 40 40 42 42 43 44 44 42 41 39 42 41 41 42 42 42 42 42 42 42 44 42 44 45 47 45 46 46 47 47 46 48 50 53 54 57 57
51 52 52 53 54 54 53 53 55 54 53 53 53 53 53 53 52 52 51 52 51 53 53 52 51 50 49 46 46 46 45 46 45 44 43 42 42 42 43 43 42 42 41 40 39 41 40 41 41 41 41 41 41 41 42 42 41 40 42 42 42 41 43 43 43 42 41 41 43 41 42 44 43 43 43 44 44 45 45 46 48 50 52 53 54
52 50 51 53 54 53 54 53 54 54 54 53 54 53 53 52 52 50 51 51 51 52 52 51 50 49 49 46 45 45 45 44 44 44 44 44 43 43 42 41 42 41 41 41 41 41 40 40 39 39 40 41 41 40 40 41 38 38 38 38 38 40 42 41 42 42 42 41 41 42 42 41 41 42 42 42 43 44 44 45 46 48 51 53 54
52 53 53 52 52 53 53 54 54 54 54 54 53 53 53 52 51 51 50 50 51 51 51 50 49 47 46 45 45 44 44 44 43 42 42 43 44 43 42 42 41 39 39 39 38 39 40 39 39 39 39 40 40 40 41 41 39 39 38 37 36 39 41 41 41 41 41 40 41 40 41 39 39 41 41 43 44 43 44 45 46 46 47 51 53
47 51 53 53 52 52 52 53 54 54 54 54 54 52 52 52 51 50 50 50 50 50 50 49 49 47 46 46 45 44 44 43 43 43 42 42 42 41 42 41 39 40 39 37 37 38 38 37 39 39 39 39 40 40 40 41 41 41 40 40 38 39 39 38 38 38 39 38 38 38 38 39 40 39 39 41 41 42 43 44 45 45 47 48 51
44 46 50 52 53 53 53 54 54 54 54 53 53 53 52 52 51 50 50 50 50 49 48 48 49 47 47 45 45 45 45 43 42 42 42 42 41 40 37 38 36 37 39 37 37 37 36 36 37 37 37 38 39 40 40 40 40 40 39 39 39 38 37 36 37 37 37 38 37 36 36 37 39 40 38 39 41 41 41 45 45 47 49 51 53
44 45 46 48 50 52 54 54 54 54 53 53 52 52 52 51 51 51 51 51 51 50 52 49 48 46 46 46 45 46 44 44 43 42 42 40 37 36 36 34 36 36 36 35 36 36 35 36 36 36 37 38 41 41 41 41 39 38 39 39 39 38 37 36 36 35 35 36 36 37 36 36 37 39 38 39 39 40 43 44 44 45 46 47 48
44 44 45 46 48 49 50 53 53 53 53 52 52 52 51 51 51 50 48 48 49 50 49 49 48 48 46 45 45 46 45 45 44 41 40 36 34 33 37 36 34 35 35 35 34 34 35 35 36 38 41 40 40 40 39 40 41 40 37 38 38 37 37 36 33 34 35 35 34 35 35 36 36 39 39 40 41 42 42 43 42 42 44 45 46
42 43 44 45 47 49 50 51 52 53 53 52 52 51 51 51 50 49 48 49 50 48 47 46 48 49 47 45 44 45 45 43 40 39 40 40 36 36 34 35 35 35 34 34 34 34 34 31 34 36 37 38 37 38 38 38 38 38 39 40 39 37 37 36 36 36 33 33 35 35 34 35 36 37 39 39 40 41 40 40 41 42 42 42 42
41 42 43 45 46 47 48 50 51 52 52 51 51 51 51 49 49 48 48 49 48 49 49 46 46 45 45 44 44 44 43 42 38 38 38 39 39 35 35 35 36 34 33 33 32 32 33 34 35 37 37 36 35 34 36 37 37 37 37 37 37 37 37 37 36 35 36 35 35 35 36 35 35 36 36 38 38 40 40 40 41 41 41 41 42
40 42 43 44 45 48 48 49 50 51 51 51 51 51 49 48 48 48 48 49 49 48 46 46 46 45 45 43 43 42 41 39 37 38 38 37 38 37 31 34 33 33 33 33 33 33 33 33 34 35 35 37 37 36 35 35 36 36 37 37 37 37 36 35 36 38 36 35 35 35 34 34 35 35 37 37 39 38 37 37 38 38 39 40 40
41 41 43 44 45 46 47 47 49 50 51 51 51 50 49 48 49 49 49 49 48 47 47 46 45 44 44 43 42 41 39 39 37 38 37 37 36 36 33 34 35 33 33 33 34 33 33 33 32 32 33 35 35 35 36 36 36 36 36 35 35 35 35 36 36 36 37 37 35 34 35 35 33 35 36 37 37 37 37 36 38 38 39 39 41
41 42 43 43 45 46 46 46 48 50 50 50 50 49 49 49 49 48 48 47 47 46 46 46 45 44 44 43 42 41 37 37 37 37 36 36 35 36 35 36 34 34 34 35 34 34 33 34 34 33 33 34 35 35 34 34 34 35 34 34 34 34 34 35 36 36 36 37 37 36 36 36 36 36 36 36 37 37 38 38 39 39 40 41 41
40 41 42 43 44 44 45 46 48 49 49 50 50 49 49 49 48 48 47 47 47 45 45 44 44 43 43 42 40 37 36 36 36 36 36 35 35 35 34 34 33 33 33 33 32 32 32 32 32 32 33 34 34 34 35 34 34 32 32 32 33 34 34 35 35 36 36 36 36 36 36 37 36 38 38 37 37 37 37 37 39 40 39 39 38
40 41 42 43 43 44 44 46 47 48 49 49 49 49 48 48 48 47 46 45 45 44 44 43 43 42 42 41 40 38 34 37 36 36 35 35 35 31 33 31 31 33 33 33 32 32 33 32 31 31 32 33 34 34 34 35 33 32 32 32 32 32 33 34 34 35 35 36 35 35 35 35 35 35 35 36 37 36 35 34 34 35 34 34 36
40 40 41 42 42 43 44 45 46 48 48 48 49 49 49 48 48 46 45 43 43 43 42 43 42 41 40 39 38 36 35 36 36 35 35 35 34 31 30 30 32 32 32 33 33 32 31 34 34 32 32 33 33 34 34 35 33 32 32 31 31 31 31 32 33 33 34 35 35 35 35 35 35 35 36 36 36 36 35 33 35 33 33 34 33
41 41 42 42 42 42 44 46 46 48 48 48 49 49 49 48 47 46 46 45 45 45 43 42 42 42 40 40 40 38 36 35 35 35 35 35 35 33 30 30 31 32 32 31 32 31 31 33 35 35 34 33 33 33 33 34 33 32 31 31 30 30 31 32 32 32 32 32 33 33 34 35 36 36 36 36 36 36 36 35 35 33 32 33 34
41 41 42 43 43 44 45 46 47 48 48 48 49 49 48 46 45 44 44 44 44 44 43 43 43 41 41 40 40 38 36 35 37 35 35 35 36 31 31 30 31 31 31 30 30 31 31 32 33 33 34 34 33 33 33 34 33 32 32 31 31 31 32 32 32 32 32 32 32 33 33 33 33 34 35 35 36 38 37 36 35 34 33 33 34
42 42 42 43 44 44 45 46 47 47 48 49 49 47 46 45 45 44 45 45 44 43 44 43 41 41 39 39 38 40 38 36 37 35 35 35 35 34 31 32 32 30 30 30 30 31 30 31 31 32 32 33 33 33 33 33 33 32 32 31 31 32 33 32 33 33 33 33 33 32 32 32 33 33 33 34 34 35 36 36 37 36 34 33 33
42 42 43 43 44 45 46 47 47 49 49 49 46 45 45 45 45 44 44 42 41 41 42 41 40 38 38 37 38 38 37 36 39 35 35 35 35 35 32 32 32 31 31 30 31 31 31 30 30 31 33 33 33 33 32 32 32 32 31 31 32 32 31 31 31 31 31 31 31 31 31 31 31 32 32 32 32 33 34 35 36 37 36 35 35
42 43 43 43 44 45 46 47 48 48 48 47 45 43 44 44 43 42 41 40 40 40 39 37 37 36 36 36 36 37 37 36 36 36 34 34 34 34 34 33 32 32 32 32 32 31 31 31 31 33 32 32 32 32 32 32 32 31 31 32 32 32 32 32 31 31 31 31 30 30 30 31 31 31 32 32 33 34 34 35 36 36 37 37 37
43 43 44 44 44 44 44 46 47 47 46 44 42 41 41 41 41 42 42 42 40 38 36 36 36 36 35 35 36 35 35 35 34 34 34 33 33 33 33 33 33 33 33 32 32 31 30 31 31 32 32 32 32 32 32 32 31 31 32 32 32 32 32 32 32 32 32 31 31 31 31 31 31 30 31 32 32 33 34 35 35 35 36 37 37
43 44 44 44 44 44 45 46 46 45 44 42 41 41 41 41 39 39 39 39 37 35 35 34 36 36 36 35 36 35 34 33 34 33 32 32 32 33 32 32 32 33 33 32 32 31 31 32 32 32 32 32 32 33 32 32 32 32 32 33 33 32 32 32 32 32 32 32 32 32 31 31 31 31 32 32 33 33 33 34 35 36 36 37 37
43 44 43 43 43 43 45 45 44 44 43 43 43 41 42 41 40 38 38 37 37 36 35 35 35 35 36 35 33 32 34 32 32 33 33 33 32 32 33 33 33 34 33 32 33 33 32 32 32 32 32 31 30 30 30 30 31 32 32 32 32 32 32 32 32 33 33 33 32 32 32 32 32 32 33 33 32 32 33 33 35 36 37 36 37
44 44 43 43 44 44 44 43 42 43 42 43 43 41 40 39 38 38 39 38 37 38 37 37 35 38 34 32 30 31 30 30 30 31 31 31 32 33 33 32 32 32 30 30 30 29 29 30 29 31 31 32 32 32 32 32 32 31 31 31 31 31 32 32 33 34 34 33 33 33 33 33 33 33 33 33 33 33 33 34 35 35 36 36 38
43 42 43 43 42 43 43 37 40 42 42 40 38 38 37 38 36 35 35 36 35 34 34 35 34 34 31 31 29 29 28 28 28 29 31 31 32 31 31 30 29 29 28 29 29 29 29 30 30 29 29 29 29 30 29 30 30 29 30 30 30 31 32 33 34 35 35 34 34 33 33 34 33 33 34 34 34 34 35 36 36 36 37 37 37
43 43 43 42 42 42 42 42 42 41 40 38 40 41 37 36 36 37 39 36 35 35 37 37 36 37 33 30 28 29 28 26 30 31 32 33 32 32 31 29 29 29 30 31 29 30 29 29 29 28 28 28 28 29 29 29 29 29 30 30 30 31 31 32 34 34 34 34 34 34 34 34 34 35 34 35 35 35 36 36 37 37 37 38 38
43 43 42 42 41 40 40 41 40 37 38 37 35 34 32 33 35 36 35 33 33 34 34 33 35 34 33 32 33 28 27 29 32 33 33 33 33 33 33 32 32 31 31 32 30 28 28 27 27 27 28 28 28 28 28 28 29 28 29 30 30 31 32 32 33 33 33 33 34 33 33 33 34 35 35 35 35 36 36 36 36 37 36 36 36
42 43 42 41 39 39 39 39 37 38 39 37 34 33 33 32 32 33 33 33 33 32 32 32 33 33 35 32 32 31 32 32 32 33 33 33 33 33 32 32 32 32 31 29 28 27 27 26 27 27 28 28 28 28 28 28 28 28 29 29 31 31 30 32 32 32 32 32 32 33 33 33 33 34 34 34 34 35 36 36 37 37 37 37 36
41 40 40 39 38 39 38 36 37 38 38 38 35 32 30 30 30 31 33 33 33 33 32 32 32 32 33 34 32 32 32 32 33 33 33 33 33 32 32 32 32 32 31 31 28 26 26 27 27 27 28 28 28 28 28 28 29 29 29 29 29 30 30 30 32 33 32 32 32 32 32 33 33 33 33 33 33 34 35 34 35 35 35 37 37
40 39 38 39 39 37 38 38 37 37 37 36 33 31 28 28 28 28 30 32 33 33 32 32 32 32 32 32 32 31 31 32 33 33 33 33 33 32 32 32 32 31 31 28 27 27 27 28 28 29 29 28 29 29 29 29 29 29 29 29 29 30 31 31 32 33 32 32 32 32 32 33 33 32 32 32 32 32 33 33 34 35 35 34 34
39 38 38 38 38 38 39 37 35 35 32 32 30 28 28 29 28 28 27 28 30 31 32 33 32 32 32 32 32 32 33 33 33 33 33 33 33 32 32 31 31 31 31 28 27 27 28 29 28 28 28 29 29 29 29 29 29 29 30 30 31 31 31 31 32 32 31 31 32 32 33 33 33 32 32 32 32 33 32 32 33 33 34 34 34
38 35 33 33 36 36 35 33 32 31 30 30 29 29 30 29 29 27 26 27 28 29 29 30 31 31 31 31 32 32 32 33 33 32 33 33 33 32 32 29 27 29 29 29 28 28 28 29 29 29 29 30 29 29 29 30 30 29 29 30 30 31 31 31 31 32 31 32 32 32 32 33 33 33 32 32 32 32 32 32 33 34 34 34 35
38 39 37 36 37 35 33 31 32 31 31 30 29 29 28 27 27 27 27 27 28 28 29 29 29 31 31 31 30 32 32 32 32 32 32 32 32 32 28 28 28 29 29 29 29 29 29 29 29 29 30 30 30 29 30 29 30 30 30 30 30 30 30 30 31 31 31 32 32 32 32 33 33 33 32 33 33 32 32 32 32 33 34 34 35
40 38 36 36 34 33 33 32 32 31 29 29 28 27 28 28 28 28 28 26 27 27 28 28 28 30 30 31 32 31 32 32 32 32 32 32 32 30 29 29 29 29 29 29 29 30 29 30 30 30 30 30 30 30 30 30 30 30 30 30 30 30 30 30 30 31 31 31 32 32 33 33 33 33 33 32 32 32 32 33 33 33 33 33 33
36 34 32 32 32 32 31 30 29 29 29 28 29 29 28 28 28 27 27 27 27 27 28 26 27 25 24 26 32 31 31 31 32 32 32 31 30 29 28 29 29 29 29 30 30 30 30 30 30 30 30 30 30 30 30 30 30 30 30 30 30 30 30 30 31 32 32 32 32 32 33 33 33 33 33 33 32 32 33 33 33 33 33 33 34
33 31 30 30 30 30 29 28 28 28 29 28 28 28 27 28 28 27 26 27 26 27 26 25 25 25 27 30 30 32 32 28 26 27 29 30 29 28 28 29 30 30 30 30 30 30 30 30 29 30 30 30 30 30 30 29 30 29 30 29 29 29 30 30 30 31 31 31 32 32 33 33 33 33 33 33 33 33 33 33 33 33 34 34 34
32 30 30 30 29 30 30 30 29 29 28 29 28 28 27 27 27 27 27 26 26 25 25 27 26 30 31 31 31 31 29 27 27 28 29 29 29 29 29 29 30 30 30 30 30 30 30 30 30 30 30 30 30 29 30 30 30 29 29 29 29 29 30 30 30 31 31 32 32 32 33 33 34 33 34 33 33 33 33 33 34 34 34 34 34
31 31 30 29 30 30 30 31 31 31 30 30 29 30 28 29 27 26 26 26 25 25 27 28 29 31 31 30 30 30 32 30 30 30 30 30 30 30 29 30 30 30 30 30 30 30 30 30 30 30 30 29 29 29 30 30 29 29 29 29 29 30 30 30 31 31 31 32 32 33 33 34 34 34 34 34 34 34 34 34 34 34 34 34 34
32 31 31 31 32 32 32 31 31 30 30 29 30 29 28 28 28 28 27 26 26 26 27 28 29 30 30 29 30 30 32 32 31 30 31 31 31 31 30 30 31 31 30 30 30 30 30 30 30 30 30 30 30 30 30 29 29 29 29 29 30 30 30 30 31 31 32 32 32 33 33 34 34 34 34 34 34 34 34 34 34 34 34 33 33
33 32 32 32 32 32 32 32 32 31 31 30 30 29 30 31 31 30 29 29 29 29 29 29 30 30 30 29 29 30 32 32 30 31 31 31 31 31 31 30 30 31 31 31 30 30 30 30 30 30 30 30 30 30 30 30 30 30 30 30 30 30 30 31 31 31 31 32 32 33 33 33 34 34 34 34 34 34 34 33 33 33 33 33 33
32 32 32 31 31 32 32 31 31 31 31 30 30 31 31 31 31 31 31 30 30 29 29 30 29 29 30 30 30 31 31 31 30 30 30 30 31 31 31 31 31 31 31 30 29 29 30 30 30 30 30 30 30 31 31 31 31 30 30 30 30 30 30 31 31 31 31 32 32 32 33 33 34 34 34 34 34 33 33 33 33 33 33 33 33
32 32 31 31 32 31 31 31 31 31 30 31 31 31 30 30 30 30 30 29 29 29 29 29 29 29 29 30 30 30 30 30 30 30 30 30 30 31 31 31 31 31 30 30 29 30 29 29 30 30 30 30 30 31 31 31 31 31 31 31 31 30 31 31 32 32 32 32 32 32 33 33 33 33 33 33 33 33 32 32 32 32 32 32 32
31 31 31 31 31 31 30 30 30 30 30 30 30 30 30 30 29 29 29 29 29 29 29 29 29 29 29 29 29 29 29 30 30 30 29 29 30 30 30 31 31 31 30 30 29 30 29 29 30 30 30 30 30 30 30 31 31 31 32 32 32 32 32 32 32 32 32 32 32 33 33 33 33 33 32 33 33 33 33 33 32 32 32 32 32
31 31 30 30 30 30 30 30 30 30 30 29 29 29 29 29 29 28 28 28 28 28 29 28 29 28 29 28 28 29 29 28 29 29 29 29 30 30 30 31 31 31 30 30 30 29 29 29 30 30 31 31 30 31 30 30 31 31 31 32 32 32 32 33 32 32 32 32 33 33 33 32 32 32 32 32 32 32 33 32 32 32 32 32 32
30 30 30 30 30 30 30 29 29 29 29 29 29 29 28 28 28 28 27 27 27 27 27 27 27 27 27 27 27 28 28 28 28 28 28 28 29 29 30 30 30 30 31 31 30 29 29 30 30 30 31 31 31 30 31 31 31 31 31 32 32 33 33 33 33 33 32 33 33 33 33 33 33 32 32 32 32 32 32 32 32 32 32 32 32
29 29 29 29 29 29 29 29 29 29 29 29 28 28 28 27 27 27 26 26 26 26 25 25 25 25 25 26 26 26 27 27 27 27 27 27 28 28 29 29 30 30 30 30 30 30 30 30 30 30 31 31 31 31 30 31 31 31 31 32 32 33 33 33 33 33 34 32 33 33 33 33 33 32 32 32 32 32 32 32 32 32 32 32 32
29 29 29 29 29 29 29 29 28 28 29 28 28 28 27 27 27 26 26 25 25 25 24 24 24 24 24 24 25 25 25 25 25 25 26 26 26 27 28 29 29 29 30 30 30 31 31 30 30 30 30 31 31 31 31 31 31 31 31 31 32 33 33 33 33 33 33 32 32 32 33 33 33 33 32 32 32 32 32 31 31 31 31 32 32
29 29 29 29 28 29 28 28 28 28 28 28 28 28 27 27 27 27 26 26 26 25 24 24 24 24 23 23 24 24 24 24 24 24 24 25 25 26 27 27 28 29 30 30 30 31 31 30 29 30 30 30 30 30 30 31 31 31 31 31 32 32 33 33 33 33 33 33 32 32 32 32 32 32 32 32 32 32 32 31 31 31 31 31 31